Regional Weather Roundup
Issued by NWS

Home | Current Version | Previous Version | Graphics & Text | Print | Product List | Glossary On
Versions: 1 2 3 4 5 6 7 8 9 10 11 12 13 14 15 16 17 18 19 20 21 22 23 24 25 26 27 28 29 30 31 32 33 34 35 36 37 38 39 40 41 42 43 44 45 46 47 48 49 50
346
ASUS44 KMEG 061410
RWRTN
TENNESSEE HOURLY STATE WEATHER ROUNDUP
NATIONAL WEATHER SERVICE MEMPHIS TN
800 AM CST TUE DEC 06 2016

TNZ002-004-019-021-049-052-054-088>092-061500-
WEST TENNESSEE

CITY           SKY/WX    TMP DP  RH WIND       PRES   REMARKS
MEMPHIS INTL   CLOUDY    44  43  96 NW8G17    29.78R
NWS MEMPHIS      N/A     43 N/A N/A MISG        N/A
JACKSON        LGT RAIN  45  44  97 W9        29.73R
DYERSBURG      CLOUDY   N/A N/A N/A NW8       29.73R
UNION CITY     CLOUDY    41  41 100 NW7       29.71R
PARIS          CLOUDY    39  39 100 W5        29.69R
HUNTINGDON     CLOUDY    45  43  93 CALM      29.69R FOG
LEXINGTON      CLOUDY    46  46 100 NW3       29.67R
$$

TNZ008-025-027-028-033-062-065-066-061500-
NORTH MIDDLE TENNESSEE

CITY           SKY/WX    TMP DP  RH WIND       PRES   REMARKS
NASHVILLE      HVY RAIN  56  53  90 W7        29.64R VSB 3/4
PORTLAND       CLOUDY    48  48 100 N6G13     29.62S FOG
CLARKSVILLE    HVY RAIN  45  43  93 NW9       29.67R FOG
SMYRNA         LGT RAIN  55  54  94 SW7       29.63R FOG
CROSSVILLE     CLOUDY    52  51  97 VRB7      29.64F
$$

TNZ061-075-076-078-094-096-097-061500-
SOUTH MIDDLE TENNESSEE

CITY           SKY/WX    TMP DP  RH WIND       PRES   REMARKS
FAYETTEVILLE   CLOUDY    55  54  94 S12       29.64R FOG
TULLAHOMA      CLOUDY    52  52 100 S7        29.62R
WINCHESTER     CLOUDY    54  52  94 SE10      29.63R
MCMINNVILLE    CLOUDY    54  54 100 VRB7      29.60F
COLUMBIA       CLOUDY   N/A N/A N/A S7        29.61R
SHELBYVILLE    CLOUDY    55  55 100 S10       29.61R
$$

TNZ017-018-042-046-047-061500-
NORTHEAST TENNESSEE

CITY           SKY/WX    TMP DP  RH WIND       PRES   REMARKS
TRI CITIES     CLOUDY    46  43  89 N6        29.76R
ELIZABETHTON   DRIZZLE   50  43  76 E14G20    29.74S
$$

TNZ012-013-036-069-073-074-061500-
CENTRAL EAST TENNESSEE

CITY           SKY/WX    TMP DP  RH WIND       PRES   REMARKS
KNOXVILLE      HVY RAIN  50  48  93 W16G23    29.72R FOG
OAK RIDGE      HVY RAIN  51  49  92 E9        29.69R VSB 1
DOWNTOWN KNOXV CLOUDY    50  50 100 VRB3      29.68R
GATLINBURG     PTSUNNY   48  46  93 VRB6      29.65F
MORRISTOWN     CLOUDY    48  46  93 E14G23    29.65F
JACKSBORO      CLOUDY    50  50 100 VRB3      29.76R FOG
$$

TNZ083-085-099-061500-
SOUTHEAST TENNESSEE

CITY           SKY/WX    TMP DP  RH WIND       PRES   REMARKS
CHATTANOOGA    CLOUDY    51  49  92 E6        29.67F FOG
$$

SKY/WX REPORTED AS FAIR MEANS FEW OR NO CLOUDS BELOW
12 THOUSAND FEET.





USA.gov is the U.S. government's official web portal to all federal, state and local government web resources and services.